TimeCDT,TemperatureF,Dew PointF,Humidity,Sea Level PressureIn,VisibilityMPH,Wind Direction,Wind SpeedMPH,Gust SpeedMPH,PrecipitationIn,Events,Conditions,WindDirDegrees,DateUTC
12:52 AM,21.0,10.9,65,30.23,10.0,NW,18.4,29.9,N/A,,Clear,310,2013-03-20 05:52:00
1:52 AM,19.0,7.0,59,30.25,10.0,NW,15.0,26.5,N/A,,Clear,310,2013-03-20 06:52:00
2:52 AM,17.1,7.0,65,30.26,10.0,NW,13.8,24.2,N/A,,Clear,320,2013-03-20 07:52:00
3:52 AM,16.0,5.0,62,30.26,10.0,NW,17.3,27.6,N/A,,Clear,320,2013-03-20 08:52:00
4:47 AM,15.8,6.8,68,30.23,10.0,NW,11.5,26.5,N/A,,Mostly Cloudy,310,2013-03-20 09:47:00
4:52 AM,15.1,6.1,68,30.26,10.0,NW,17.3,26.5,N/A,,Mostly Cloudy,310,2013-03-20 09:52:00
5:52 AM,15.1,5.0,64,30.28,10.0,NW,16.1,27.6,N/A,,Scattered Clouds,320,2013-03-20 10:52:00
6:52 AM,14.0,3.9,64,30.29,10.0,WNW,13.8,23.0,N/A,,Clear,300,2013-03-20 11:52:00
7:52 AM,14.0,3.9,64,30.30,10.0,NW,16.1,31.1,N/A,,Clear,310,2013-03-20 12:52:00
8:52 AM,15.1,1.9,56,30.30,10.0,WNW,24.2,32.2,N/A,,Clear,300,2013-03-20 13:52:00
9:52 AM,17.1,3.0,54,30.29,10.0,NW,21.9,28.8,N/A,,Clear,320,2013-03-20 14:52:00
10:52 AM,19.0,5.0,54,30.28,10.0,WNW,21.9,29.9,N/A,,Clear,300,2013-03-20 15:52:00
11:52 AM,21.0,6.1,53,30.27,10.0,WNW,19.6,32.2,N/A,,Clear,300,2013-03-20 16:52:00
12:52 PM,23.0,5.0,46,30.27,10.0,NW,15.0,31.1,N/A,,Clear,310,2013-03-20 17:52:00
1:52 PM,24.1,8.1,51,30.24,10.0,WNW,19.6,33.4,N/A,,Mostly Cloudy,300,2013-03-20 18:52:00
2:52 PM,25.0,8.1,49,30.22,10.0,WNW,21.9,29.9,N/A,,Overcast,290,2013-03-20 19:52:00
3:52 PM,24.1,6.1,46,30.21,10.0,NW,24.2,32.2,N/A,,Overcast,320,2013-03-20 20:52:00
4:52 PM,25.0,7.0,46,30.20,10.0,NW,17.3,26.5,N/A,,Mostly Cloudy,310,2013-03-20 21:52:00
5:52 PM,24.1,8.1,51,30.19,10.0,NW,19.6,27.6,N/A,,Overcast,310,2013-03-20 22:52:00
6:52 PM,23.0,8.1,53,30.19,10.0,WNW,20.7,27.6,N/A,,Partly Cloudy,300,2013-03-20 23:52:00
7:52 PM,21.9,8.1,55,30.18,10.0,NW,12.7,25.3,N/A,,Clear,310,2013-03-21 00:52:00
8:52 PM,21.0,9.0,60,30.17,10.0,WNW,10.4,-,N/A,,Clear,300,2013-03-21 01:52:00
9:52 PM,19.9,9.0,62,30.17,10.0,NNW,12.7,19.6,N/A,,Clear,330,2013-03-21 02:52:00
10:52 PM,19.9,9.0,62,30.17,10.0,NNW,10.4,-,N/A,,Clear,330,2013-03-21 03:52:00
11:52 PM,19.0,6.1,57,30.17,10.0,North,8.1,-,N/A,,Clear,350,2013-03-21 04:52:00